FIN1493 EFHK-LOWI

Flight info

Callsign FIN1493
Flight time N/A
Altitude 36000
Route KOIVU4P KOIVU Y123 LARTI DCT ROLAV DCT BOKSU DCT DESEN DCT LANUX DCT BAGSI DCT NANIT NANIT2A
Aircraft A21N/M-SDE2E3FGHIRWXY/LB1

Departure

Time 2026-04-24 13:51
Airport Helsinki Vantaa Airport (EFHK)

Arrival

Time N/A
Airport Innsbruck Airport (LOWI)
Time Latitude Longitude Altitude Speed Heading
2026-04-24 13:48 60.33057 24.95395 201 ft 1 kts 317°
2026-04-24 13:48 60.33073 24.95364 202 ft 6 kts 318°
2026-04-24 13:48 60.33120 24.95287 204 ft 10 kts 322°
2026-04-24 13:49 60.33112 24.95165 205 ft 11 kts 244°
2026-04-24 13:49 60.33103 24.94998 205 ft 12 kts 272°
2026-04-24 13:49 60.33107 24.94809 203 ft 14 kts 273°
2026-04-24 13:49 60.33114 24.94601 202 ft 16 kts 275°
2026-04-24 13:50 60.33098 24.94373 202 ft 16 kts 242°
2026-04-24 13:50 60.33007 24.94149 203 ft 39 kts 228°
2026-04-24 13:50 60.32654 24.93361 196 ft 110 kts 224°
2026-04-24 13:50 60.32003 24.91934 175 ft 167 kts 226°
2026-04-24 13:51 60.31134 24.90138 589 ft 179 kts 232°
2026-04-24 13:51 60.30312 24.88272 1236 ft 179 kts 238°
2026-04-24 13:51 60.29677 24.86247 1720 ft 169 kts 252°
2026-04-24 13:51 60.29553 24.83995 1953 ft 163 kts 286°
2026-04-24 13:52 60.29855 24.81751 2133 ft 173 kts 292°
2026-04-24 13:52 60.30248 24.79279 2092 ft 202 kts 291°
2026-04-24 13:52 60.30565 24.76358 2232 ft 225 kts 271°
2026-04-24 13:52 60.30080 24.73228 2517 ft 246 kts 245°
2026-04-24 13:53 60.29018 24.70361 2775 ft 267 kts 219°
2026-04-24 13:53 60.27271 24.68965 3196 ft 278 kts 187°
2026-04-24 13:53 60.25362 24.68885 3815 ft 280 kts 179°
2026-04-24 13:53 60.23403 24.69045 4403 ft 282 kts 179°
2026-04-24 13:54 60.21457 24.69142 4954 ft 285 kts 181°
2026-04-24 13:54 60.19470 24.69142 5526 ft 286 kts 182°
2026-04-24 13:54 60.17475 24.69070 6113 ft 288 kts 183°
2026-04-24 13:54 60.15489 24.68954 6684 ft 290 kts 184°
2026-04-24 13:55 60.13469 24.68813 7177 ft 293 kts 184°
2026-04-24 13:55 60.11441 24.68657 7694 ft 296 kts 184°
2026-04-24 13:55 60.09376 24.68495 8212 ft 300 kts 185°
2026-04-24 13:55 60.07285 24.68327 8704 ft 304 kts 185°
2026-04-24 13:56 60.05169 24.68158 9160 ft 308 kts 185°
2026-04-24 13:56 60.03014 24.67983 9632 ft 311 kts 185°
2026-04-24 13:56 60.00849 24.67810 10047 ft 317 kts 185°
2026-04-24 13:56 59.98608 24.67625 10281 ft 329 kts 185°
2026-04-24 13:57 59.96287 24.67436 10515 ft 341 kts 185°
2026-04-24 13:57 59.93893 24.67243 10729 ft 352 kts 185°
2026-04-24 13:57 59.91404 24.67043 10935 ft 363 kts 185°
2026-04-24 13:57 59.88845 24.66841 11145 ft 374 kts 185°
2026-04-24 13:58 59.86218 24.66580 11339 ft 384 kts 188°
2026-04-24 13:58 59.83558 24.65945 11576 ft 390 kts 193°
2026-04-24 13:58 59.80912 24.64872 11946 ft 392 kts 197°
2026-04-24 13:58 59.78262 24.63616 12334 ft 395 kts 198°
2026-04-24 13:59 59.75602 24.62337 12710 ft 398 kts 198°
2026-04-24 13:59 59.72900 24.61050 13107 ft 401 kts 198°
2026-04-24 13:59 59.70180 24.59766 13434 ft 405 kts 198°
2026-04-24 13:59 59.67431 24.58600 13786 ft 409 kts 194°
2026-04-24 14:00 59.64601 24.57785 14139 ft 414 kts 190°
2026-04-24 14:00 59.61734 24.57258 14493 ft 417 kts 189°
2026-04-24 14:00 59.58827 24.56752 14857 ft 419 kts 189°
2026-04-24 14:00 59.55923 24.56248 15204 ft 422 kts 189°
2026-04-24 14:01 59.53022 24.55740 15561 ft 424 kts 189°
2026-04-24 14:01 59.50074 24.55221 15888 ft 426 kts 189°
2026-04-24 14:01 59.47130 24.54701 16254 ft 428 kts 189°
2026-04-24 14:01 59.44164 24.54177 16600 ft 430 kts 189°
2026-04-24 14:02 59.41199 24.53651 16920 ft 433 kts 189°
2026-04-24 14:02 59.38191 24.53119 17240 ft 435 kts 189°
2026-04-24 14:02 59.35187 24.52589 17567 ft 437 kts 189°
2026-04-24 14:02 59.32164 24.52057 17886 ft 439 kts 189°
2026-04-24 14:03 59.29126 24.51521 18208 ft 441 kts 189°
2026-04-24 14:03 59.26076 24.50985 18510 ft 443 kts 189°
2026-04-24 14:03 59.23013 24.50447 18808 ft 445 kts 189°
2026-04-24 14:03 59.19929 24.49907 19102 ft 447 kts 189°
2026-04-24 14:04 59.16834 24.49367 19408 ft 449 kts 189°
2026-04-24 14:04 59.13718 24.48824 19698 ft 451 kts 189°
2026-04-24 14:04 59.10594 24.48280 19993 ft 453 kts 189°
2026-04-24 14:04 59.07466 24.47737 20290 ft 454 kts 189°
2026-04-24 14:05 59.04359 24.47201 20591 ft 455 kts 189°
2026-04-24 14:05 59.01214 24.46658 20902 ft 456 kts 190°
2026-04-24 14:05 58.98060 24.46110 21173 ft 458 kts 190°
2026-04-24 14:05 58.94897 24.45565 21442 ft 460 kts 190°
2026-04-24 14:06 58.91695 24.45012 21714 ft 461 kts 190°
2026-04-24 14:06 58.88522 24.44465 21962 ft 463 kts 190°
2026-04-24 14:06 58.85327 24.43917 22197 ft 465 kts 189°
2026-04-24 14:06 58.82092 24.43363 22444 ft 466 kts 190°
2026-04-24 14:07 58.78871 24.42812 22692 ft 467 kts 189°
2026-04-24 14:07 58.75647 24.42261 22938 ft 468 kts 190°
2026-04-24 14:07 58.72413 24.41711 23166 ft 470 kts 189°
2026-04-24 14:07 58.69183 24.41163 23377 ft 471 kts 190°
2026-04-24 14:08 58.65922 24.40609 23597 ft 473 kts 190°
2026-04-24 14:08 58.62647 24.40054 23820 ft 474 kts 189°
2026-04-24 14:08 58.59365 24.39500 24046 ft 475 kts 189°
2026-04-24 14:08 58.56088 24.38947 24267 ft 477 kts 189°
2026-04-24 14:09 58.52766 24.38388 24482 ft 478 kts 189°
2026-04-24 14:09 58.49474 24.37835 24693 ft 479 kts 189°
2026-04-24 14:09 58.46156 24.37280 24915 ft 480 kts 189°
2026-04-24 14:09 58.42855 24.36726 25143 ft 481 kts 189°
2026-04-24 14:10 58.39531 24.36171 25340 ft 483 kts 189°
2026-04-24 14:10 58.36201 24.35616 25535 ft 484 kts 189°
2026-04-24 14:10 58.32852 24.35058 25737 ft 485 kts 189°
2026-04-24 14:10 58.29478 24.34496 25943 ft 486 kts 188°
2026-04-24 14:11 58.26131 24.33940 26147 ft 487 kts 188°
2026-04-24 14:11 58.22773 24.33384 26349 ft 488 kts 188°
2026-04-24 14:11 58.16003 24.32266 26708 ft 491 kts 188°
2026-04-24 14:12 58.12582 24.31703 26883 ft 492 kts 188°
2026-04-24 14:12 58.09196 24.31147 27063 ft 493 kts 188°
2026-04-24 14:12 58.05793 24.30590 27235 ft 495 kts 188°
2026-04-24 14:12 58.02345 24.30028 27418 ft 495 kts 188°
2026-04-24 14:13 57.98959 24.29476 27591 ft 496 kts 188°
2026-04-24 14:13 57.95525 24.28916 27748 ft 498 kts 188°
2026-04-24 14:13 57.92055 24.28353 27915 ft 499 kts 188°
2026-04-24 14:13 57.88636 24.27798 28064 ft 500 kts 188°
2026-04-24 14:14 57.85160 24.27235 28199 ft 501 kts 188°
2026-04-24 14:14 57.81696 24.26675 28346 ft 501 kts 188°
2026-04-24 14:14 57.74766 24.25557 28629 ft 502 kts 188°
2026-04-24 14:15 57.71338 24.25005 28748 ft 503 kts 188°
2026-04-24 14:15 57.67848 24.24444 28869 ft 503 kts 188°
2026-04-24 14:15 57.64367 24.23887 28984 ft 504 kts 188°
2026-04-24 14:15 57.60884 24.23331 29093 ft 504 kts 188°
2026-04-24 14:16 57.57405 24.22776 29266 ft 503 kts 188°
2026-04-24 14:16 57.53931 24.22224 29457 ft 502 kts 188°
2026-04-24 14:16 57.50466 24.21674 29611 ft 501 kts 188°
2026-04-24 14:17 57.43549 24.20578 29875 ft 501 kts 188°
2026-04-24 14:17 57.40086 24.20030 30011 ft 501 kts 188°
2026-04-24 14:17 57.33177 24.18943 30325 ft 499 kts 188°
2026-04-24 14:18 57.29719 24.18399 30487 ft 498 kts 188°
2026-04-24 14:18 57.26283 24.17861 30626 ft 498 kts 188°
2026-04-24 14:18 57.22856 24.17323 30749 ft 498 kts 188°
2026-04-24 14:18 57.19405 24.16783 30872 ft 498 kts 188°
2026-04-24 14:19 57.12569 24.15716 31136 ft 497 kts 187°
2026-04-24 14:19 57.09144 24.15185 31264 ft 496 kts 188°
2026-04-24 14:19 57.05706 24.14653 31386 ft 496 kts 188°
2026-04-24 14:20 57.02266 24.14121 31499 ft 496 kts 188°
2026-04-24 14:20 56.98858 24.13595 31602 ft 496 kts 188°
2026-04-24 14:20 56.95431 24.13067 31704 ft 496 kts 188°
2026-04-24 14:20 56.91997 24.12538 31806 ft 496 kts 187°
2026-04-24 14:21 56.88606 24.12015 31919 ft 495 kts 188°
2026-04-24 14:21 56.85169 24.11487 32036 ft 494 kts 187°
2026-04-24 14:21 56.81757 24.10966 32139 ft 494 kts 188°
2026-04-24 14:21 56.78342 24.10444 32244 ft 493 kts 187°
2026-04-24 14:22 56.74939 24.09926 32363 ft 492 kts 187°
2026-04-24 14:22 56.71536 24.09407 32456 ft 492 kts 187°
2026-04-24 14:22 56.64754 24.08375 32607 ft 492 kts 187°
2026-04-24 14:23 56.61358 24.07860 32668 ft 492 kts 187°
2026-04-24 14:23 56.54563 24.06837 32791 ft 493 kts 187°
2026-04-24 14:23 56.51170 24.06326 32892 ft 492 kts 187°
2026-04-24 14:24 56.47786 24.05817 32998 ft 491 kts 187°
2026-04-24 14:24 56.41024 24.04804 33192 ft 489 kts 187°
2026-04-24 14:25 56.34278 24.03777 33327 ft 489 kts 188°
2026-04-24 14:25 56.27608 24.01856 33447 ft 486 kts 196°
2026-04-24 14:26 56.21108 23.98674 33577 ft 484 kts 199°
2026-04-24 14:26 56.14689 23.95366 33713 ft 483 kts 199°
2026-04-24 14:27 56.08220 23.92062 33884 ft 482 kts 199°
2026-04-24 14:27 56.01808 23.88806 34021 ft 481 kts 199°
2026-04-24 14:28 55.95398 23.85564 34098 ft 482 kts 199°
2026-04-24 14:28 55.88961 23.82317 34213 ft 482 kts 199°
2026-04-24 14:29 55.82558 23.79099 34348 ft 480 kts 199°
2026-04-24 14:29 55.76150 23.75892 34445 ft 479 kts 199°
2026-04-24 14:30 55.70824 23.73232 34498 ft 480 kts 199°
2026-04-24 14:30 55.63369 23.69524 34562 ft 480 kts 199°
2026-04-24 14:31 55.56947 23.66339 34603 ft 480 kts 199°
2026-04-24 14:31 55.50516 23.63164 34656 ft 481 kts 199°
2026-04-24 14:32 55.44133 23.60022 34734 ft 480 kts 199°
2026-04-24 14:32 55.37702 23.56866 34791 ft 480 kts 199°
2026-04-24 14:33 55.31332 23.53752 34837 ft 480 kts 199°
2026-04-24 14:33 55.24926 23.50628 34892 ft 480 kts 199°
2026-04-24 14:34 55.18493 23.47503 34952 ft 479 kts 199°
2026-04-24 14:34 55.12107 23.44412 34983 ft 480 kts 199°
2026-04-24 14:35 55.05666 23.41303 35013 ft 480 kts 199°
2026-04-24 14:35 54.99247 23.38215 35051 ft 481 kts 199°
2026-04-24 14:36 54.92828 23.35142 35104 ft 481 kts 199°
2026-04-24 14:36 54.86420 23.32080 35141 ft 481 kts 198°
2026-04-24 14:37 54.79966 23.29006 35145 ft 482 kts 198°
2026-04-24 14:37 54.73510 23.25944 35155 ft 483 kts 199°
2026-04-24 14:38 54.67047 23.22886 35158 ft 484 kts 199°
2026-04-24 14:38 54.60583 23.19836 35201 ft 484 kts 199°
2026-04-24 14:39 54.54140 23.16809 35227 ft 484 kts 199°
2026-04-24 14:39 54.47666 23.13777 35237 ft 485 kts 199°
2026-04-24 14:40 54.41182 23.10750 35238 ft 486 kts 199°
2026-04-24 14:40 54.34777 23.07133 35264 ft 481 kts 207°
2026-04-24 14:41 54.28911 23.01884 35293 ft 475 kts 218°
2026-04-24 14:41 54.23736 22.95182 35318 ft 468 kts 227°
2026-04-24 14:42 54.18928 22.87708 35324 ft 468 kts 228°
2026-04-24 14:42 54.14145 22.80281 35361 ft 468 kts 228°
2026-04-24 14:43 54.09331 22.72858 35404 ft 468 kts 228°
2026-04-24 14:43 54.04684 22.65736 35435 ft 468 kts 228°
2026-04-24 14:44 53.99870 22.58384 35431 ft 468 kts 228°
2026-04-24 14:44 53.95046 22.51040 35450 ft 469 kts 228°
2026-04-24 14:45 53.90171 22.43649 35501 ft 469 kts 228°
2026-04-24 14:45 53.89862 22.43182 35506 ft 469 kts 228°